RH
52 45 36 28 24 21 18 17 19 22 23 24 26 29 33 35 35 35 35 37 38 38 38 38 39 41 42 45 50 55 61 66 70 72 75 78 82 86 90 92 92 91 91 90 90 91 91 92 92 91 90 89 89 90 90 91 91 91 90 89 90 91 91 91 91 91 91 91 92 93 93 94 94 94 94 94 95 95 95 95 94 94 95 95 95 95
54 47 38 30 25 21 18 16 18 22 25 26 27 30 34 35 34 34 35 36 37 38 38 39 41 42 44 47 51 57 63 68 71 74 76 80 84 88 91 91 91 91 90 90 91 91 91 91 91 89 89 88 88 89 91 92 91 90 90 91 91 91 89 91 92 93 93 93 93 94 94 94 94 95 94 94 95 95 95 95 95 94 94 94 94 94
56 49 40 32 26 22 18 17 18 21 26 28 30 31 34 34 33 33 34 35 36 37 38 40 43 45 47 50 54 59 65 69 72 75 79 82 86 90 91 91 91 90 90 90 89 89 89 89 90 90 90 90 90 90 91 90 89 89 91 91 92 92 92 93 93 94 94 93 94 94 94 94 94 94 94 94 94 94 94 94 92 91 93 93 93 93
58 50 41 33 28 24 19 18 19 21 25 29 31 32 34 34 33 33 35 36 37 37 38 41 45 48 51 53 56 61 67 71 75 79 82 85 87 90 91 91 89 87 86 86 86 86 87 89 90 90 90 90 89 90 91 89 89 90 92 91 92 93 93 92 92 93 93 93 93 93 94 94 93 93 93 93 94 93 92 89 85 85 91 93 93 93
59 52 42 36 31 26 21 20 21 23 26 29 31 33 35 34 35 35 37 38 39 39 40 43 47 51 54 57 60 64 70 74 78 82 85 86 87 87 88 86 84 83 83 84 85 87 89 90 90 90 90 90 89 89 90 89 89 91 92 92 93 93 92 92 92 92 92 92 93 93 93 93 93 93 94 94 93 93 93 87 84 85 90 92 92 93
60 54 45 40 35 30 25 23 23 24 28 31 33 35 36 36 37 39 41 41 41 43 45 48 51 53 57 60 64 69 74 78 81 83 84 83 83 82 80 78 78 80 82 85 87 89 91 90 89 89 90 90 89 88 88 88 89 91 92 92 92 91 91 91 92 92 92 92 92 93 93 93 93 93 93 93 93 93 93 91 88 87 87 87 89 92
62 56 49 43 37 32 29 26 25 26 32 36 38 39 39 40 42 44 45 45 46 48 51 53 54 56 58 62 67 73 78 81 82 81 79 78 76 75 74 74 76 79 82 85 87 89 90 89 89 89 90 90 89 88 88 88 88 89 90 90 90 90 90 91 91 92 92 92 92 92 93 93 93 93 93 93 93 93 93 91 89 86 83 82 86 92
64 58 51 45 40 36 32 28 26 27 33 40 43 44 44 45 47 50 51 51 52 54 58 59 59 59 60 65 70 77 82 83 82 79 76 73 72 71 72 73 75 78 81 84 86 87 87 87 87 87 89 89 89 89 88 88 88 89 89 90 90 90 90 91 91 92 91 92 92 92 92 92 92 92 93 93 93 93 93 92 91 89 87 81 85 91
67 61 54 48 44 43 40 32 28 28 34 42 47 50 50 52 54 55 57 56 57 59 64 66 65 64 64 67 73 79 84 84 81 78 75 74 72 71 72 74 77 79 81 83 84 85 85 85 85 85 85 85 85 85 84 85 87 89 90 90 90 90 90 91 91 91 91 92 92 92 92 92 92 92 92 92 92 92 92 92 92 91 87 83 86 91
72 66 59 51 47 46 47 39 32 30 36 45 51 55 58 62 64 64 64 61 60 63 68 71 71 70 68 70 74 79 83 83 81 78 76 74 73 72 73 76 78 79 80 81 82 82 83 81 80 80 81 80 81 81 81 83 86 89 90 89 90 90 90 91 91 91 91 92 92 92 92 91 90 90 90 91 92 92 91 89 88 88 85 86 89 93
79 73 66 58 52 49 49 43 37 35 40 50 57 62 65 70 73 74 72 68 66 67 71 73 74 74 73 72 74 77 81 83 81 78 75 71 70 71 73 76 77 78 78 78 78 78 78 77 76 76 77 78 79 79 80 81 84 87 89 89 89 89 90 90 91 91 91 92 92 92 92 91 91 91 92 91 91 91 90 85 83 82 83 87 91 93
83 78 73 67 61 57 53 49 46 46 51 61 68 71 71 71 74 77 78 76 74 73 74 75 75 74 73 73 74 77 81 83 82 78 73 70 69 71 75 77 78 78 78 78 77 76 75 75 75 76 76 77 77 76 76 78 80 83 86 88 89 89 90 91 91 91 91 91 92 92 92 92 91 90 91 90 90 91 90 87 83 81 82 86 90 92
86 82 78 73 69 65 62 59 57 57 60 65 69 70 69 69 74 80 84 83 82 80 79 79 76 73 69 69 73 77 81 83 81 78 73 71 72 74 78 80 81 80 79 79 77 76 75 75 75 76 76 76 74 73 72 75 78 82 86 88 89 90 90 91 91 91 91 91 91 92 92 92 91 90 91 90 91 92 91 90 88 86 85 88 90 91
87 84 80 76 72 70 68 68 68 68 67 65 65 66 68 74 80 86 89 89 87 85 85 84 81 75 68 66 69 75 82 83 81 77 74 73 75 78 82 84 84 83 81 81 80 78 75 76 77 76 75 74 72 71 71 74 79 84 88 90 90 91 91 91 91 91 91 91 91 91 91 91 91 90 91 90 91 92 91 91 91 91 90 91 92 92
87 85 84 80 74 69 66 66 67 68 68 66 68 72 78 84 87 90 92 91 90 89 88 87 84 78 71 65 67 74 83 83 81 79 77 76 78 81 85 87 86 85 83 82 80 79 76 77 78 77 76 75 73 72 73 76 81 86 89 90 90 91 91 91 91 91 90 90 90 91 92 92 91 91 91 91 92 92 92 92 91 90 91 92 92 93
87 85 83 78 71 65 60 62 64 65 65 69 75 82 87 90 91 91 91 91 91 90 91 90 87 81 72 65 67 74 81 82 81 81 82 81 82 83 87 89 87 85 81 80 79 78 77 78 78 78 78 76 74 74 75 79 83 87 90 89 89 90 91 90 90 90 90 90 91 91 92 91 91 92 91 91 92 92 91 91 92 91 89 88 89 92
88 85 80 76 69 61 55 58 62 67 71 76 82 87 90 91 91 91 92 92 92 92 92 91 89 84 76 69 67 71 78 81 83 85 87 87 86 86 89 90 88 84 78 77 77 77 78 78 78 78 77 76 75 75 76 80 84 87 90 90 90 90 90 90 91 91 91 91 91 91 92 91 91 91 91 92 91 89 88 90 91 91 90 91 92 92
87 83 77 72 65 59 54 59 64 71 77 83 88 91 91 91 92 92 93 92 92 92 92 91 89 85 80 77 73 72 76 81 85 89 90 90 89 88 88 88 86 82 78 76 76 77 78 78 78 78 78 78 78 78 78 82 86 89 90 90 90 90 90 91 91 91 91 91 91 91 91 91 92 92 90 90 90 90 92 92 92 93 93 93 93 94
86 80 74 68 61 56 55 62 68 75 82 88 91 93 93 92 92 92 93 92 92 92 92 90 86 81 78 77 74 73 78 84 89 92 92 92 90 88 84 84 82 79 76 76 76 77 78 79 80 80 81 80 79 78 79 81 85 88 90 90 90 91 90 90 91 91 91 91 91 91 91 91 91 91 89 90 91 92 92 92 92 93 92 93 93 94
86 80 72 64 60 59 62 65 69 76 85 90 92 93 93 92 92 92 92 92 92 92 92 90 85 78 73 73 74 76 83 89 92 93 92 92 89 85 80 80 79 78 76 75 76 78 81 82 83 84 84 82 80 78 78 81 84 87 90 90 90 90 90 90 91 91 91 91 91 91 91 91 91 91 92 92 92 92 91 92 92 92 91 92 93 93
87 82 75 68 66 68 73 71 71 76 86 91 93 93 93 93 92 92 92 92 92 92 92 87 78 70 68 72 76 81 88 92 93 92 92 92 89 84 76 76 77 78 78 78 79 82 85 86 86 86 85 81 79 78 78 78 80 84 88 89 90 90 90 91 91 91 91 91 91 91 91 91 91 91 92 92 92 91 91 92 92 92 92 93 93 92
88 84 78 74 73 72 70 68 71 77 88 92 93 93 93 93 93 92 92 92 92 90 87 75 66 62 67 74 81 86 92 93 93 92 91 90 84 76 70 74 78 81 83 82 83 85 87 87 87 87 86 84 81 80 77 76 77 81 86 88 89 90 90 90 91 90 90 90 91 91 91 91 91 91 91 92 92 92 92 93 93 93 93 94 94 94
88 85 81 78 77 75 71 73 78 86 92 92 93 93 93 93 92 92 92 92 89 82 70 60 58 62 71 79 86 91 92 92 92 91 90 87 81 74 69 75 80 84 85 85 86 87 88 87 87 87 87 85 82 79 76 74 75 78 85 88 89 90 90 90 90 90 90 90 90 91 91 91 91 91 92 92 92 92 93 93 93 93 93 94 94 95
86 83 81 80 80 80 80 83 88 91 93 93 93 93 93 92 92 92 92 90 82 69 56 55 60 69 79 87 91 92 92 91 90 89 87 84 79 75 72 78 83 86 86 86 87 88 88 88 87 87 88 85 81 77 75 73 75 79 82 85 87 89 89 90 90 91 91 90 90 90 91 91 91 91 91 92 92 92 92 92 92 92 93 93 93 93
89 86 85 85 85 87 89 91 92 93 93 93 93 93 93 92 92 92 91 84 72 60 55 61 71 82 89 91 92 91 91 90 88 86 84 82 79 76 75 81 86 89 89 88 89 89 89 89 89 88 87 84 81 77 75 74 74 75 76 80 84 87 88 89 89 90 91 90 90 90 91 90 90 91 91 92 92 92 92 92 92 92 93 92 92 93
92 92 91 91 92 92 93 93 93 92 92 93 93 93 92 92 92 91 85 73 64 59 62 72 83 91 93 92 92 91 88 85 83 81 81 82 81 79 78 83 87 89 89 89 89 90 90 90 89 87 87 84 80 76 74 73 72 72 73 77 81 84 87 87 88 89 90 89 89 89 90 90 90 91 91 91 91 91 92 92 92 92 92 92 92 92
93 92 92 93 93 93 93 93 93 92 92 92 93 93 93 92 92 89 77 67 64 68 76 86 91 93 92 92 90 87 82 79 78 79 80 82 84 85 82 84 86 89 89 90 90 90 90 91 90 88 86 84 80 77 75 74 72 72 72 73 74 78 85 87 87 87 89 89 89 90 90 90 90 91 91 91 91 91 91 92 92 92 92 92 92 91
93 92 92 93 93 93 93 93 93 93 93 93 93 93 93 92 92 91 84 77 77 81 89 91 92 92 92 91 87 82 76 76 76 77 79 81 84 86 84 84 86 89 90 91 91 90 90 90 89 88 85 83 82 81 78 76 74 73 70 69 71 76 82 85 87 88 88 89 89 90 90 90 90 90 90 90 91 91 91 92 92 92 92 92 92 90
92 92 92 91 91 92 93 93 94 94 94 94 94 94 92 91 91 91 91 89 88 90 91 92 92 92 91 89 84 79 74 73 73 75 77 81 83 84 83 85 88 90 91 91 91 91 90 90 89 87 85 84 84 84 83 79 76 73 69 68 69 73 77 82 85 88 88 89 89 89 89 90 90 90 90 91 91 91 91 92 92 92 92 92 91 90
88 85 82 77 77 80 85 90 91 91 91 93 93 93 92 91 91 91 92 91 91 91 92 92 92 91 89 86 83 79 75 72 72 74 78 80 82 83 84 88 90 91 91 91 91 91 90 89 88 87 86 86 86 86 86 83 80 77 73 72 72 73 75 79 84 87 87 88 88 89 89 89 90 90 91 90 91 91 91 92 92 92 92 92 92 91
79 72 65 58 56 59 64 72 75 76 75 78 81 84 87 89 90 92 92 92 92 92 92 92 91 89 86 83 83 83 78 72 71 73 77 80 83 85 87 90 91 91 91 91 90 90 91 89 88 88 87 88 88 87 88 86 83 80 78 76 76 75 76 80 84 86 87 87 88 89 89 89 89 90 90 90 90 90 91 91 92 92 92 92 92 92
71 63 56 51 48 49 52 55 56 57 56 58 62 68 74 77 81 85 87 87 87 87 87 88 86 83 79 77 79 80 77 71 69 70 73 78 82 86 90 91 92 91 91 91 90 89 90 90 90 90 89 90 89 88 89 87 85 83 81 80 79 78 77 81 85 87 87 88 88 89 89 89 89 89 89 90 90 90 90 90 91 92 93 93 93 92
71 64 57 52 50 49 48 48 47 48 50 53 59 64 69 71 73 73 73 72 71 71 73 76 76 75 74 72 73 74 71 67 65 66 69 77 84 89 91 92 92 92 92 92 91 90 90 91 91 91 91 90 90 89 88 87 85 84 83 83 82 80 79 82 86 88 88 88 88 88 87 88 89 89 89 90 90 90 90 90 91 92 93 92 92 92
76 69 63 59 54 50 44 42 43 46 51 58 65 72 77 78 77 73 68 64 62 61 63 68 71 73 73 71 71 71 67 63 62 63 68 78 86 91 92 92 92 92 92 92 92 91 91 91 91 91 91 91 90 90 88 87 85 84 85 85 85 84 83 84 86 88 88 88 88 88 87 88 89 89 89 89 89 89 90 90 91 91 93 93 92 92
83 78 73 68 62 55 47 42 43 47 55 63 72 80 86 87 85 80 74 69 67 66 68 72 75 76 73 71 71 71 67 62 60 63 69 79 87 91 91 92 92 92 92 92 92 91 91 91 91 91 91 91 90 90 88 86 86 86 86 86 86 86 86 87 88 88 88 89 89 89 89 89 89 89 89 89 89 89 89 90 90 90 90 91 91 92
89 85 81 76 70 63 55 50 49 53 60 68 76 83 89 90 88 84 79 76 74 74 77 79 79 76 72 70 70 69 66 61 61 65 72 81 87 90 90 91 92 92 91 91 91 91 91 91 91 91 90 91 90 90 88 87 87 87 87 87 87 86 86 87 88 89 89 89 89 89 89 90 90 89 89 89 89 89 89 89 89 88 85 83 84 86
91 89 84 77 71 66 60 58 58 61 65 71 77 84 89 90 89 86 83 80 80 80 83 83 80 76 71 69 68 68 65 63 65 68 75 82 87 89 89 91 91 91 91 91 91 91 91 91 91 91 91 90 90 90 90 89 88 88 89 88 87 87 86 86 87 89 89 89 90 90 90 90 90 89 89 89 90 89 89 89 88 87 83 77 75 75
91 88 83 76 70 67 65 66 67 68 70 74 79 85 90 90 90 88 86 85 85 85 86 85 80 75 71 69 69 68 68 68 70 73 77 83 87 89 90 90 91 91 91 91 91 91 90 90 90 91 91 90 90 90 90 90 90 90 90 89 88 88 86 84 84 85 87 89 89 90 90 90 90 90 90 90 90 90 89 88 88 86 82 75 69 66
91 87 81 75 70 68 68 69 70 72 75 79 84 88 91 91 91 90 90 88 88 88 88 85 81 76 72 71 71 72 73 75 76 77 80 84 86 87 87 87 88 89 90 91 91 91 90 89 89 90 90 90 90 90 90 90 90 90 90 90 89 87 84 80 79 80 83 86 89 90 90 90 90 90 90 90 90 90 89 89 88 86 84 76 68 61
90 86 80 73 69 67 69 71 74 78 84 88 91 92 92 92 92 91 90 89 89 88 88 85 81 77 74 73 74 75 77 78 79 81 83 83 82 81 80 82 83 85 87 90 91 91 91 90 90 91 91 90 90 90 90 90 90 90 90 90 90 88 82 78 76 76 78 83 86 89 90 90 90 90 90 90 90 90 90 90 89 87 86 83 77 68
90 87 81 74 70 70 73 78 84 88 91 92 92 92 93 92 91 90 89 89 89 88 87 83 79 76 74 74 75 76 78 80 81 81 81 78 76 74 74 77 79 82 87 90 91 91 91 91 91 91 91 91 90 90 90 90 90 90 90 90 90 88 84 79 75 73 75 79 84 87 89 90 90 90 91 90 90 90 90 90 90 89 87 86 85 81
91 88 83 80 80 83 87 90 92 93 93 93 93 93 91 90 90 90 91 91 90 89 86 82 78 76 76 76 75 76 76 77 76 76 74 72 70 69 70 72 74 78 85 89 91 91 91 91 91 91 91 91 90 90 90 90 89 89 90 90 89 88 85 78 71 69 74 78 82 85 88 89 90 90 91 91 90 90 90 90 90 90 90 88 87 84
93 91 89 89 90 92 93 93 93 92 92 92 91 90 88 88 89 91 92 91 91 89 87 84 82 82 84 83 81 78 75 72 70 69 69 68 67 66 67 68 70 75 81 88 91 91 91 91 91 91 91 91 90 90 90 90 90 89 89 89 89 90 90 78 69 67 72 77 81 84 88 89 90 90 90 90 90 90 89 90 90 90 90 90 88 84
94 94 93 93 93 93 93 93 92 92 91 91 90 88 87 89 91 92 92 91 90 89 88 88 88 89 91 91 89 86 81 74 70 68 68 67 66 66 66 67 68 72 78 85 89 90 90 91 91 90 90 91 90 90 90 90 90 89 86 85 86 88 89 82 76 74 75 76 79 83 87 88 89 90 90 90 90 90 89 89 89 89 88 88 87 84
91 92 93 93 93 93 93 92 91 91 92 93 92 92 91 92 92 92 92 91 90 89 89 90 91 92 92 91 91 90 87 82 76 72 69 67 66 66 66 67 68 71 76 82 86 89 90 90 90 89 89 90 90 90 90 90 89 87 85 81 80 81 80 79 79 78 78 79 81 83 85 86 88 89 90 90 90 90 90 90 89 88 86 85 84 82
82 86 89 90 91 91 91 91 91 91 93 93 93 92 92 92 92 92 92 91 91 90 90 90 91 91 92 91 91 91 90 88 85 79 73 69 67 65 66 67 68 72 77 81 85 88 90 90 90 90 89 90 90 89 88 88 87 84 79 78 78 79 78 79 79 80 81 83 85 86 85 86 88 90 90 90 90 90 90 90 90 89 86 83 80 78
81 84 86 87 88 89 90 91 92 93 93 93 92 92 92 92 92 92 91 91 91 90 90 90 91 91 91 91 91 91 91 91 90 86 79 73 69 67 66 67 68 72 77 81 85 87 89 89 90 90 89 89 89 87 84 81 81 81 79 79 80 82 83 82 80 80 81 84 86 87 87 88 89 90 90 89 89 88 88 87 87 86 85 83 80 77
88 89 90 90 92 93 93 93 93 93 93 92 92 92 92 92 92 91 91 91 91 91 91 91 91 91 91 91 91 91 91 90 90 89 86 80 75 71 69 69 70 73 77 81 85 87 89 89 89 89 89 89 89 87 83 79 78 79 79 81 83 85 86 84 80 77 76 80 84 87 88 88 89 89 90 90 89 88 86 84 83 83 83 83 81 78
90 91 92 92 93 93 93 93 93 93 93 92 92 92 92 92 91 91 91 91 91 90 91 91 91 91 91 91 90 90 90 90 91 91 90 86 81 76 72 72 74 77 81 84 86 87 88 88 89 89 89 89 89 88 85 82 80 80 81 84 84 85 86 82 78 75 75 78 81 82 81 81 83 85 89 89 89 88 87 84 83 82 82 82 81 78
85 86 87 88 90 91 90 91 92 92 92 92 92 92 91 90 90 90 90 90 90 90 90 90 90 90 91 90 90 90 90 90 90 90 90 88 84 81 78 78 80 84 87 88 88 89 89 89 89 89 89 89 89 89 87 85 84 84 84 84 83 83 83 80 77 76 78 78 75 71 67 69 75 82 88 89 89 89 88 86 85 83 80 81 80 76
77 79 81 83 85 87 87 89 91 92 92 91 91 90 90 89 88 87 88 90 90 90 90 90 90 90 90 90 90 90 90 90 90 90 91 88 86 84 84 85 86 89 91 90 90 90 90 90 90 89 89 87 87 88 88 87 87 86 85 83 82 81 82 81 80 79 79 75 70 65 64 69 76 84 88 89 89 90 89 88 86 83 79 79 77 72
Wind_Speed
35 34 32 31 31 31 30 29 29 29 30 29 28 28 28 27 27 26 26 26 25 25 25 24 24 24 25 25 25 25 26 26 26 27 27 28 29 29 30 30 31 32 33 33 34 35 35 36 37 38 38 39 39 40 40 40 40 40 40 40 41 41 42 42 43 43 44 44 45 45 45 45 46 46 47 47 46 45 45 46 47 48 48 49 48 48
35 34 33 32 31 31 31 29 29 29 30 30 29 29 28 28 28 27 26 25 25 24 24 24 24 25 25 26 26 26 27 27 27 27 28 28 29 29 30 30 31 32 33 34 35 35 36 37 38 38 38 38 38 38 39 39 39 39 39 40 40 41 42 43 43 44 44 45 45 45 45 45 46 46 47 47 46 45 45 46 47 48 49 49 49 48
35 35 34 33 32 31 31 30 29 29 30 30 30 29 29 29 28 28 27 25 25 24 24 24 25 25 26 27 27 27 28 28 28 28 28 28 28 29 30 30 31 33 34 35 36 36 37 38 38 38 38 37 37 37 38 38 38 39 40 40 41 42 42 43 44 44 45 45 45 45 45 46 46 46 47 47 46 46 46 47 48 49 49 48 48 47
35 35 34 33 32 32 31 31 30 30 30 30 30 30 30 29 29 28 27 26 25 24 24 24 25 26 27 28 28 29 29 29 28 28 28 28 28 29 30 31 33 34 35 36 37 37 37 37 37 36 36 36 36 37 38 38 39 39 40 41 42 42 43 43 44 45 45 45 46 45 45 46 46 46 46 46 46 46 46 47 48 48 47 47 47 47
36 35 34 33 33 32 32 31 30 30 30 31 31 31 31 30 29 28 27 26 25 25 25 25 25 26 27 28 29 29 29 29 28 28 28 28 29 30 32 33 34 35 36 36 36 36 36 36 35 35 35 36 36 37 38 38 39 40 40 41 42 42 43 43 44 44 45 45 46 46 46 45 45 45 45 45 45 45 46 47 48 48 47 47 47 47
36 35 34 33 33 33 32 32 31 31 32 32 32 32 31 30 29 28 27 26 25 25 25 26 26 27 28 28 29 29 29 29 28 28 28 29 30 32 33 34 35 35 35 35 34 34 34 35 35 35 35 36 36 37 38 38 39 40 40 41 42 42 43 43 43 44 44 45 45 45 45 45 45 45 45 44 44 44 45 46 48 48 48 48 47 46
36 35 34 33 33 33 33 33 32 32 33 32 32 32 31 30 29 28 27 26 25 25 26 26 27 27 28 29 29 29 29 29 28 29 30 31 32 34 35 35 35 34 34 33 33 33 34 34 34 35 35 36 36 37 38 38 39 40 40 41 42 42 42 43 43 43 44 44 44 44 44 45 45 45 45 45 44 45 45 46 48 49 49 48 47 45
36 35 34 34 34 34 34 34 33 32 32 31 31 31 30 30 29 28 27 26 26 25 26 26 27 28 29 29 29 29 29 29 30 31 33 34 36 37 36 36 35 34 33 33 33 33 33 34 34 35 35 36 36 37 38 38 39 39 40 40 41 41 41 42 42 42 42 43 43 43 43 44 44 44 45 45 45 45 45 46 47 48 48 48 46 45
36 36 36 35 35 34 34 34 33 32 31 30 29 29 29 29 29 28 27 27 26 25 25 26 27 28 29 30 30 29 29 29 30 32 34 36 37 37 37 35 34 33 33 33 33 33 34 35 35 36 36 36 37 37 37 38 38 39 39 39 39 40 40 40 40 41 41 41 41 42 42 42 42 43 43 43 44 44 45 45 46 46 47 47 45 45
36 36 36 35 34 33 33 34 33 31 29 29 28 28 28 29 29 28 28 27 26 25 24 24 26 28 30 31 31 30 29 30 32 33 35 36 37 36 35 34 33 33 33 34 34 35 35 36 37 37 37 37 37 37 37 37 37 37 38 38 38 39 39 39 39 39 39 39 39 40 40 40 40 40 41 42 42 43 44 44 44 45 45 45 45 45
35 35 35 34 34 33 32 33 32 30 28 28 28 29 29 29 28 28 28 28 27 25 24 24 26 28 30 32 32 31 31 32 34 36 37 37 37 35 34 33 33 33 34 35 36 36 37 37 37 37 37 37 36 36 36 36 36 37 37 37 37 37 37 38 38 38 38 38 38 38 38 39 40 40 41 42 42 43 44 44 44 44 44 44 44 45
33 33 32 32 32 32 32 31 30 29 27 27 27 28 29 29 27 26 27 27 27 26 25 26 28 29 31 32 33 33 33 33 34 36 37 37 36 35 34 33 34 35 36 37 38 38 38 38 37 37 36 36 36 35 36 36 36 36 36 37 37 36 37 37 37 37 38 38 39 39 40 41 42 42 42 43 43 44 44 45 44 44 44 43 43 44
32 31 30 30 30 30 30 30 29 28 28 28 28 29 30 28 26 25 25 26 26 26 26 28 30 32 33 34 33 33 32 32 33 34 35 35 35 34 33 33 34 36 37 38 39 40 39 39 37 37 36 36 36 36 36 36 36 36 36 36 36 36 37 37 38 38 39 40 40 41 42 42 42 42 43 43 43 43 44 45 45 45 44 44 43 43
32 31 30 30 30 29 29 28 27 27 27 28 29 29 29 27 25 25 25 26 26 26 26 28 31 33 35 35 34 32 30 30 31 32 33 34 33 32 32 33 35 37 38 38 39 40 40 38 37 37 37 37 37 37 37 36 36 36 36 36 37 37 37 38 38 39 39 40 40 40 41 41 41 41 42 42 42 42 43 43 44 44 44 43 43 43
32 31 29 29 29 29 28 27 27 27 27 28 28 28 27 27 26 26 26 26 27 26 27 28 31 34 36 36 33 30 27 27 28 30 32 33 33 33 32 33 35 37 38 38 38 39 39 38 37 38 38 38 38 37 37 36 36 36 37 37 37 38 38 38 39 39 39 39 39 39 40 40 41 41 42 41 41 41 41 40 41 41 41 42 42 42
32 30 30 30 30 30 29 28 27 28 28 28 27 27 27 27 27 27 26 27 26 26 26 28 30 33 35 35 32 27 24 24 26 28 31 34 35 34 32 33 35 37 39 38 38 38 38 37 37 37 38 38 37 36 35 35 36 36 37 37 37 37 38 38 38 38 39 39 39 39 40 40 40 40 40 40 39 39 39 40 40 40 41 40 40 41
32 31 31 31 31 31 30 28 27 28 28 27 27 27 27 28 28 28 27 27 27 26 26 27 28 30 31 33 31 27 23 23 25 28 31 34 36 36 34 33 35 37 39 39 38 37 37 37 37 37 38 38 37 36 35 36 36 37 37 37 37 38 38 38 38 38 38 39 39 39 39 39 39 39 39 40 41 42 41 41 42 42 40 40 39 39
34 33 34 33 32 32 30 29 28 27 27 28 28 28 29 29 29 29 29 28 28 28 28 28 29 28 28 29 30 28 25 24 26 29 32 35 36 37 35 34 35 37 38 38 37 36 36 37 37 37 37 37 36 35 35 36 36 37 37 37 37 38 38 38 38 38 38 38 37 37 37 37 37 38 40 42 43 43 42 42 41 39 38 37 37 37
35 35 35 34 33 32 30 28 27 27 28 28 29 29 30 30 30 30 30 30 30 30 29 30 30 31 30 31 31 30 27 26 28 30 32 35 37 38 37 35 35 36 36 36 36 36 36 37 37 37 36 35 35 35 35 36 36 37 37 37 37 37 37 37 37 37 37 36 36 36 36 36 37 39 41 42 43 42 42 40 39 38 37 36 35 36
35 35 35 34 33 32 30 30 29 28 28 28 29 30 31 31 31 31 31 31 31 31 31 31 31 32 32 32 31 30 27 27 28 30 32 34 37 39 37 34 33 34 36 36 36 36 35 36 36 37 36 35 35 36 36 36 36 37 37 37 37 37 36 36 36 36 35 35 35 36 36 37 38 39 40 40 40 40 39 38 37 36 35 35 35 36
35 35 35 33 32 30 29 29 29 29 28 28 29 30 31 31 31 32 32 32 31 31 31 31 32 32 32 31 31 30 29 29 29 30 31 33 35 37 37 34 33 34 35 36 35 34 34 35 35 36 36 36 36 36 36 37 37 37 37 37 37 36 36 35 35 35 35 35 36 36 37 38 38 38 38 38 37 36 35 35 35 35 35 36 36 36
35 35 34 32 31 31 31 31 31 30 30 30 30 31 31 31 31 32 32 32 32 32 32 33 33 33 32 32 32 32 32 31 29 28 29 31 36 39 38 34 32 32 33 34 34 34 34 35 36 36 36 36 36 37 37 37 37 37 37 36 36 35 35 34 34 35 35 36 36 37 37 37 37 36 35 35 34 34 35 35 36 37 37 37 36 36
36 35 34 33 33 33 33 33 33 33 32 32 31 31 31 31 32 32 32 33 34 35 36 35 35 34 33 34 34 34 32 29 27 26 27 29 34 38 37 33 30 30 32 33 33 34 34 36 36 37 37 37 37 37 37 37 37 36 36 35 35 34 34 34 34 35 36 36 36 36 36 35 35 34 34 33 34 34 36 37 37 37 37 36 35 35
38 37 36 36 36 36 37 37 37 36 35 33 33 33 33 33 33 34 35 37 38 38 37 36 35 35 35 35 34 33 30 27 26 26 26 29 32 35 35 32 30 30 33 33 33 34 35 36 37 37 37 37 38 38 38 38 37 35 35 34 34 34 34 34 35 35 36 36 35 34 34 33 33 33 33 33 34 35 36 36 36 36 35 35 35 34
40 39 39 38 38 39 39 39 39 38 37 36 35 35 36 36 38 39 40 40 39 38 36 35 35 35 34 34 32 30 29 27 26 25 27 28 31 34 34 31 29 30 33 34 33 33 35 36 37 38 38 39 39 39 38 38 36 35 35 35 35 35 35 35 35 35 35 34 33 33 33 32 32 33 33 34 34 35 35 35 35 35 35 35 35 35
41 41 40 40 40 41 41 41 41 40 40 39 39 39 40 40 41 42 42 41 39 37 36 37 36 34 33 31 29 29 29 28 27 26 27 28 31 33 33 30 28 29 32 33 33 33 34 36 38 39 39 39 40 39 38 37 37 36 36 36 37 37 36 36 35 34 34 33 33 33 32 32 32 33 33 34 34 34 35 34 34 34 34 34 35 35
41 41 41 40 41 41 41 41 41 41 40 40 39 38 38 38 39 40 40 40 39 38 38 36 34 32 31 29 28 29 29 29 28 28 28 28 29 30 31 30 29 29 31 33 34 34 34 34 36 37 38 39 39 39 39 38 37 38 38 39 39 38 37 36 35 34 33 33 33 33 33 33 33 33 34 34 34 33 33 32 32 32 32 33 33 34
42 41 41 40 40 40 40 40 40 39 39 38 37 35 34 34 36 38 40 41 41 40 38 34 31 28 27 27 28 30 32 32 31 30 28 27 27 28 30 29 28 29 31 34 35 35 33 33 34 35 36 37 38 38 39 39 39 40 41 41 40 39 37 36 35 34 33 33 33 33 33 33 33 33 33 33 33 32 31 31 30 30 30 31 32 32
43 42 41 40 40 39 39 38 38 37 37 36 35 33 32 33 36 39 41 41 39 36 32 29 27 26 26 28 30 33 35 35 33 30 26 24 25 27 29 28 28 28 30 33 35 35 33 32 31 31 33 34 36 37 39 40 41 42 42 42 41 40 38 37 36 34 34 33 33 33 33 33 33 32 32 32 31 30 30 29 29 29 29 30 30 30
42 42 41 40 39 38 37 36 36 36 35 34 33 32 32 33 35 37 37 35 31 28 25 25 25 26 27 29 30 32 34 34 31 26 23 22 23 26 28 28 28 28 29 31 32 32 33 33 32 30 31 33 35 37 39 41 42 42 42 42 42 41 40 38 36 35 35 34 34 34 34 33 32 32 31 30 30 29 29 28 28 28 28 28 28 28
38 38 38 38 36 35 35 34 34 34 33 33 32 31 31 32 33 34 34 31 28 26 26 27 28 29 29 29 28 27 30 31 29 25 23 22 24 27 28 28 29 29 28 28 28 29 31 34 34 33 33 34 36 37 38 40 41 41 41 41 42 41 40 38 37 36 36 36 35 35 34 34 33 32 31 30 29 29 28 28 27 27 27 27 27 27
32 33 33 33 32 31 30 30 30 30 31 31 31 30 30 30 31 31 32 32 32 32 32 32 33 33 33 33 31 30 32 32 31 29 27 26 27 28 28 28 29 29 29 28 28 28 28 31 35 37 37 36 37 37 37 39 40 40 40 40 41 41 41 39 38 37 38 38 37 37 36 35 34 32 31 30 29 29 28 27 26 26 27 27 28 27
29 29 30 29 29 28 28 27 27 27 28 29 30 30 29 28 28 29 30 31 32 33 34 35 35 36 36 36 36 36 36 35 34 31 29 27 27 27 28 28 29 30 30 30 29 29 29 31 34 37 37 37 37 37 37 38 39 39 39 39 40 41 41 40 39 38 38 39 39 38 37 36 35 33 32 31 30 29 28 27 26 26 26 27 27 27
29 29 29 29 29 29 28 27 26 26 27 29 29 30 29 29 28 28 28 29 30 31 33 34 35 35 36 35 35 35 36 35 33 31 28 27 27 28 28 29 29 30 31 30 30 30 31 32 34 35 36 37 38 37 37 37 38 38 38 38 39 40 41 40 39 39 39 39 39 38 38 37 35 34 33 32 31 30 29 28 27 26 25 24 25 26
30 30 30 30 31 31 30 29 28 28 28 29 30 30 30 30 29 29 29 29 30 30 31 32 33 33 33 33 33 34 34 34 32 29 27 27 28 29 30 30 30 30 30 31 31 31 31 33 34 34 35 37 37 38 37 37 37 37 38 38 39 39 39 39 38 38 38 38 38 38 37 37 35 34 34 33 32 31 30 29 28 26 24 22 22 23
31 32 32 32 32 32 31 31 30 29 29 30 30 31 31 31 30 30 30 30 30 31 31 32 31 31 30 30 32 33 34 33 30 28 28 28 29 31 31 32 32 32 31 32 32 33 34 35 35 35 35 35 35 36 38 38 37 36 37 38 38 38 38 38 37 36 37 37 37 37 36 36 35 35 34 33 32 31 30 29 29 27 25 23 21 21
33 32 32 32 32 32 32 32 31 31 30 30 31 31 31 31 30 30 30 31 31 31 31 31 30 30 29 29 30 31 32 31 30 29 28 29 30 32 34 35 34 33 33 33 33 34 35 34 34 35 34 33 33 34 36 38 39 38 38 38 38 38 38 37 36 35 35 35 36 36 35 35 34 33 33 33 32 31 31 30 29 28 26 24 21 20
33 33 32 31 31 31 31 32 32 32 31 31 31 31 31 31 30 30 31 31 31 31 31 30 30 29 29 29 30 30 31 31 30 30 29 30 31 33 34 36 35 33 32 32 33 34 35 34 34 34 34 34 34 35 36 37 38 39 39 39 39 38 37 36 36 35 34 35 35 35 34 34 34 34 34 33 32 32 33 33 32 30 28 25 22 19
33 33 32 30 30 30 31 31 32 32 32 32 32 31 31 30 30 30 31 31 32 32 31 30 30 30 30 30 30 30 31 31 31 31 31 31 32 33 33 34 34 33 32 31 32 33 34 35 34 34 34 35 36 37 37 37 38 38 39 40 40 39 37 37 36 36 35 34 34 34 34 34 34 34 34 33 33 33 34 34 33 32 30 28 24 20
32 31 31 30 30 30 30 31 32 32 32 31 31 30 29 29 30 31 32 32 32 32 31 31 31 31 31 31 31 31 31 32 32 32 32 32 32 31 31 32 33 32 32 32 32 33 33 34 35 35 34 35 36 37 37 37 37 38 38 39 38 38 39 39 38 36 35 34 34 33 34 34 33 33 33 33 33 34 34 34 33 33 32 30 29 26
31 31 31 31 30 30 31 31 31 31 30 29 28 28 29 30 31 32 33 33 32 32 31 31 32 32 32 32 32 32 33 33 33 33 33 32 31 29 29 29 30 31 32 32 32 33 33 33 33 34 34 35 36 36 37 36 37 37 36 36 37 39 40 39 37 35 34 34 34 33 33 33 33 33 34 34 35 35 34 34 33 32 32 31 30 29
30 30 31 32 32 32 31 31 30 28 28 27 28 30 32 33 34 34 33 33 32 32 32 32 32 33 33 34 34 34 34 34 34 34 33 31 29 28 27 27 28 29 31 32 32 32 32 32 32 33 34 35 35 36 36 37 37 37 36 36 37 39 41 39 37 35 34 34 34 33 33 33 34 35 36 36 37 36 34 33 32 31 31 30 29 28
30 31 31 32 31 30 29 28 28 28 29 30 32 34 35 36 35 34 33 32 32 32 33 33 32 33 33 35 35 36 35 35 34 33 32 30 28 27 26 27 28 28 30 31 32 32 32 32 32 32 33 33 33 34 36 37 38 37 36 36 36 36 36 38 38 37 35 35 35 34 34 34 35 36 37 38 38 37 35 33 32 31 30 30 30 28
29 30 31 30 29 28 28 28 29 31 33 34 35 36 37 36 34 33 31 31 31 32 32 32 31 32 33 34 35 36 36 36 35 33 32 30 28 27 27 27 28 29 29 30 31 32 32 32 32 32 32 32 32 33 35 37 37 37 37 36 35 35 35 37 38 38 37 36 35 35 34 35 36 37 38 39 38 37 36 34 33 32 31 30 29 28
31 32 32 31 30 30 30 31 33 34 34 34 35 36 35 34 32 31 30 31 32 33 32 31 31 31 32 33 34 34 35 35 35 34 33 31 29 28 28 28 29 30 30 31 31 32 32 32 33 33 33 32 32 32 33 35 36 36 36 36 35 35 36 37 37 37 37 36 36 36 35 36 37 38 39 39 38 36 35 34 33 32 32 31 30 28
33 33 34 34 33 33 33 34 35 36 36 36 35 34 33 32 31 31 31 32 33 34 33 33 32 32 32 33 33 33 33 34 35 35 34 32 31 29 29 29 30 31 31 32 32 32 32 32 33 33 33 33 33 34 34 34 35 35 35 35 35 35 36 36 35 35 35 35 36 36 37 37 37 37 38 38 37 36 35 34 33 32 32 31 30 27
33 34 34 35 35 35 36 36 35 35 34 34 34 33 33 32 32 33 33 34 34 34 34 34 33 33 34 34 33 32 32 33 34 35 35 34 33 32 31 31 31 32 32 32 33 32 32 32 32 32 32 32 33 34 35 34 33 32 33 33 34 35 36 36 35 34 34 34 35 36 36 36 36 36 36 37 37 37 36 35 34 33 32 31 30 28
33 33 34 34 35 35 35 35 35 34 33 34 34 34 35 34 34 34 34 34 34 34 34 34 34 34 34 34 34 34 33 33 34 35 37 37 35 34 33 32 32 33 33 33 33 33 33 33 32 31 31 30 31 33 33 32 31 30 30 31 33 34 35 35 36 35 35 34 34 34 35 34 34 35 36 36 37 37 37 36 34 33 32 31 30 28
34 34 35 35 35 35 35 35 34 34 35 35 36 36 36 36 35 34 33 33 33 33 33 34 34 34 34 34 34 34 34 34 35 36 37 38 37 36 35 34 34 34 34 34 34 34 33 33 32 31 29 28 28 29 30 30 29 29 29 30 31 32 33 35 36 37 36 35 35 36 36 36 36 36 35 35 35 36 36 36 35 32 31 30 29 28
34 35 35 35 35 34 34 35 35 35 36 37 36 36 36 35 34 33 32 32 31 32 32 33 33 34 34 35 35 35 34 34 35 36 37 38 39 38 37 36 34 33 32 33 32 32 31 31 30 30 29 26 24 24 25 27 27 28 29 30 31 32 33 35 36 37 36 37 38 40 40 40 38 35 33 32 33 34 35 35 34 32 30 30 29 28
32 32 33 33 33 33 33 34 35 35 36 36 35 34 33 33 32 31 30 29 30 30 31 31 32 34 35 36 36 36 35 35 35 36 37 39 39 38 37 36 34 32 31 31 30 29 28 27 27 28 28 27 24 21 21 22 24 26 28 30 31 32 32 34 36 38 39 40 42 42 41 39 37 34 31 30 30 31 33 34 34 32 31 30 29 28
Wind_Direction
270 271 272 273 274 276 278 280 282 284 285 287 288 290 292 294 296 298 300 300 299 298 298 299 300 302 304 306 307 307 307 306 305 304 303 301 300 299 297 297 297 297 297 298 298 298 297 296 295 294 293 292 292 291 291 290 290 289 288 286 286 285 285 285 285 284 284 284 284 284 283 283 282 281 280 279 278 277 276 275 274 273 272 271 270 270
269 271 271 272 274 276 278 280 282 284 286 287 288 289 291 293 295 298 299 299 298 297 298 299 302 304 306 308 309 310 309 308 306 305 304 302 300 298 298 297 298 299 299 299 298 297 296 295 294 293 293 292 292 292 292 292 291 290 289 288 287 287 286 285 285 284 284 284 284 283 283 282 281 280 279 278 278 277 276 275 273 272 272 271 271 271
268 270 271 273 274 276 278 281 282 283 285 286 287 288 290 292 294 296 298 298 297 297 298 301 304 307 309 311 311 311 310 309 307 305 303 302 300 299 299 299 299 299 299 298 296 295 294 294 294 294 294 294 294 294 293 293 292 291 290 289 288 287 286 285 285 285 284 284 283 283 282 281 280 280 279 278 278 277 276 274 272 271 271 271 271 271
267 268 270 273 274 276 278 281 282 283 284 285 286 287 289 291 294 296 297 297 297 298 300 303 307 309 310 311 312 311 310 309 307 304 302 301 300 300 300 300 299 298 297 296 295 295 295 295 295 296 296 296 296 295 294 293 292 291 290 289 288 287 286 286 285 284 284 283 283 283 283 282 281 280 279 278 277 277 276 274 272 272 272 272 272 272
265 267 270 272 273 275 278 280 282 282 283 284 285 286 288 291 294 296 297 297 297 299 302 306 309 310 311 311 310 310 309 308 306 304 300 299 299 299 298 297 296 296 296 296 296 297 297 297 297 297 297 297 296 295 294 293 292 291 290 289 288 287 286 286 285 284 283 283 282 282 282 282 281 280 279 278 277 276 276 274 274 273 273 273 272 272
265 267 269 271 272 274 278 279 280 281 282 283 284 286 288 291 293 295 296 297 299 301 303 307 310 311 310 309 309 308 308 307 304 302 299 298 297 296 297 297 297 297 297 297 298 298 298 298 298 298 297 297 296 295 294 293 292 291 290 289 288 287 286 286 285 284 284 283 282 281 281 281 280 280 279 278 277 276 276 276 275 273 273 272 272 272
265 267 268 270 271 274 277 278 279 280 281 282 284 286 288 291 293 294 296 298 300 302 304 307 309 310 309 308 307 306 305 304 302 300 299 298 297 298 299 300 300 299 299 299 298 298 299 299 298 298 297 296 296 295 294 293 292 291 290 289 288 287 287 286 285 285 284 283 282 281 281 280 280 279 279 278 277 277 276 276 275 274 273 272 272 273
264 266 267 268 270 273 275 276 277 278 279 280 282 285 288 290 291 293 295 297 298 301 303 306 307 308 307 306 305 304 302 301 300 299 299 299 300 301 301 301 301 300 300 299 299 299 299 299 298 298 296 296 295 294 294 293 292 291 291 290 289 288 287 286 286 285 284 284 283 282 281 281 280 280 279 278 278 277 277 277 277 276 275 273 272 273
261 264 266 267 268 270 272 274 276 277 278 278 280 282 285 287 289 291 293 294 296 298 301 303 304 305 305 304 303 301 299 298 297 297 298 299 300 301 302 301 301 300 300 300 299 299 299 299 299 298 297 296 295 295 295 294 294 293 292 291 290 289 288 287 286 285 285 285 284 283 283 282 282 281 281 280 280 279 278 278 277 277 276 274 274 275
260 262 264 266 267 268 269 272 274 276 276 277 279 280 282 283 285 288 290 292 295 297 298 299 300 301 302 302 300 298 296 294 294 294 296 298 300 301 301 300 300 300 300 300 300 300 299 300 299 299 298 297 297 297 297 296 295 294 293 292 291 290 289 288 287 287 286 286 285 285 285 284 284 284 283 282 281 280 278 277 276 275 274 274 275 277
257 260 262 264 266 268 268 271 274 276 277 277 278 279 279 279 280 283 286 290 294 296 296 296 296 296 297 298 298 297 295 294 295 296 298 300 301 301 301 300 300 301 301 301 301 301 301 301 301 300 300 299 299 298 298 298 297 295 294 293 292 291 290 289 289 288 288 288 288 288 287 286 286 285 284 282 281 280 279 276 275 274 274 275 276 277
254 257 259 261 264 266 268 270 274 276 276 274 273 273 274 276 278 280 283 286 290 292 293 294 295 295 295 295 296 296 295 295 296 299 301 303 304 303 303 302 303 303 303 303 303 303 303 303 302 302 301 301 300 300 300 299 298 297 296 294 293 292 292 291 291 290 290 290 289 288 288 287 286 285 284 284 283 283 283 281 279 278 277 277 277 277
252 254 256 258 260 263 266 268 271 271 270 269 268 268 271 276 279 280 280 282 284 287 290 292 294 295 296 296 296 295 296 296 298 300 301 302 303 303 303 303 303 303 304 304 304 304 304 304 304 303 302 301 301 301 301 300 299 298 297 296 295 294 293 292 291 291 290 289 289 288 288 287 287 286 286 286 286 286 285 285 284 282 280 280 279 278
249 251 252 254 256 258 261 263 265 265 266 267 270 273 278 281 281 278 276 277 279 283 286 288 290 293 296 297 296 296 296 297 298 299 300 300 301 301 301 302 302 303 304 304 304 304 305 304 304 303 303 303 303 304 303 302 300 299 298 296 295 294 293 292 291 290 290 289 289 289 289 288 288 288 287 287 286 286 285 285 284 283 282 281 280 279
246 247 248 250 253 255 258 259 260 261 264 269 273 277 280 280 277 274 272 272 275 278 282 284 288 292 295 296 297 297 297 296 296 297 298 298 299 300 300 301 302 303 303 303 303 303 304 304 303 303 304 304 305 305 304 303 301 300 298 296 295 294 293 292 292 291 291 290 290 290 290 290 289 289 288 288 287 285 284 282 282 282 281 280 280 278
244 244 245 248 252 255 257 258 259 261 265 269 271 272 272 271 271 270 269 269 272 275 278 282 288 292 295 296 296 296 295 295 294 294 295 296 298 299 300 301 301 302 303 302 302 303 304 304 303 303 303 304 305 305 304 302 301 299 298 297 296 295 294 294 293 292 292 292 291 291 290 290 290 290 289 288 286 284 282 281 280 279 279 278 277 276
242 242 245 248 252 256 259 259 259 261 264 266 267 267 266 267 268 268 267 267 269 272 275 281 287 291 294 295 295 295 295 294 293 293 293 295 297 299 300 300 301 301 302 302 303 303 304 304 303 303 303 304 305 305 304 303 302 301 300 299 298 297 296 295 294 294 293 292 292 292 291 291 291 290 289 288 286 284 284 284 283 282 281 280 279 277
241 242 245 248 252 256 259 259 258 259 262 263 264 265 266 267 267 266 264 264 266 270 275 281 284 286 288 290 292 294 295 293 291 291 292 293 295 298 300 301 301 301 301 302 302 303 304 304 304 304 304 304 305 305 304 303 301 301 301 301 300 299 297 296 295 295 294 293 293 292 292 292 291 291 290 290 289 288 289 289 289 288 287 285 283 280
243 245 247 249 253 257 259 258 258 258 260 261 263 264 265 265 265 263 262 263 266 270 275 280 283 284 284 285 288 292 293 290 288 288 290 292 295 298 301 302 302 301 301 301 302 304 304 305 305 305 304 305 305 305 304 304 303 302 303 302 301 300 299 298 297 296 295 294 294 293 293 293 292 292 291 291 292 292 293 293 292 292 291 289 287 285
246 248 250 253 256 258 258 259 260 260 261 264 265 265 264 263 262 260 260 262 266 271 277 280 282 282 283 284 287 289 289 287 286 287 289 292 295 298 302 302 302 302 302 302 303 305 305 305 305 305 305 304 305 305 305 305 304 303 303 302 302 301 300 299 298 297 296 296 295 295 294 293 293 292 291 291 292 292 292 292 292 292 291 290 289 287
248 250 254 257 257 256 256 260 264 267 268 268 266 263 261 260 258 258 260 263 268 274 279 280 281 282 283 283 284 285 285 285 286 288 291 293 296 298 301 302 302 301 301 302 304 306 306 305 305 304 304 305 306 306 306 307 306 305 304 303 302 302 302 301 300 299 298 297 296 295 294 294 293 293 293 293 293 293 293 292 292 292 291 290 289 287
251 252 256 258 258 258 260 265 270 273 272 268 261 256 255 255 255 257 261 267 273 278 281 282 282 283 282 281 280 281 284 285 286 288 292 294 295 298 301 302 302 300 299 301 304 306 306 305 304 304 304 305 306 307 308 308 308 307 306 305 304 304 303 303 302 301 300 298 297 295 294 294 294 294 294 294 294 293 293 293 292 292 291 290 289 288
256 257 259 261 262 264 268 271 273 273 270 264 257 253 252 253 255 260 266 274 281 286 287 286 284 281 279 278 279 281 284 284 285 287 290 291 293 297 301 302 301 299 299 301 304 305 306 306 305 304 304 305 306 308 310 311 311 310 308 306 306 306 306 305 304 302 300 298 297 296 296 296 296 296 295 295 295 294 294 294 294 293 292 291 290 290
259 262 264 265 266 268 270 272 272 270 266 260 255 252 253 256 260 267 275 283 287 288 285 281 278 275 275 276 278 281 282 283 285 287 289 289 291 295 299 300 300 300 301 302 304 306 306 306 305 305 305 306 308 311 313 314 314 312 310 308 308 308 307 306 304 303 301 300 299 299 298 298 298 297 297 297 296 296 295 295 294 293 292 292 292 292
257 260 263 265 266 267 268 268 268 266 263 259 257 257 259 263 268 274 280 283 283 280 276 273 271 271 273 275 277 279 281 284 286 288 289 289 291 294 297 299 299 299 301 304 306 306 306 305 306 306 307 309 312 314 316 316 315 313 311 310 309 309 308 307 306 305 304 304 303 302 301 300 300 299 299 299 298 297 295 295 294 293 292 292 291 291
252 255 258 260 262 263 263 263 263 263 262 262 263 265 268 271 274 278 279 278 275 271 269 268 268 268 270 272 274 278 283 286 288 288 288 289 291 294 296 298 299 300 302 304 306 306 305 305 306 307 309 311 314 316 317 316 315 314 314 312 312 311 310 309 309 309 308 307 306 304 303 302 302 301 301 300 299 298 297 295 294 294 294 293 291 290
247 250 252 255 257 258 259 260 260 261 262 264 266 269 272 275 277 278 276 273 269 267 266 265 264 265 267 270 275 280 285 287 287 287 288 289 290 291 294 298 301 302 303 304 305 306 305 304 305 307 309 312 315 316 316 316 315 315 315 315 315 314 313 313 312 312 310 309 307 306 305 304 303 303 302 301 300 300 299 298 297 297 295 294 291 288
245 247 250 252 254 256 257 258 259 260 261 262 263 265 268 271 272 272 271 269 267 265 262 260 259 261 266 273 280 284 288 288 287 287 289 290 288 287 293 298 302 302 303 305 306 306 305 304 305 307 310 312 314 314 315 315 315 316 317 318 318 317 316 315 315 313 312 310 309 307 306 305 304 304 303 303 303 303 303 302 302 301 299 296 292 287
246 247 249 251 253 254 255 257 258 258 259 259 260 260 261 262 264 265 266 267 264 258 253 252 255 262 271 279 285 288 289 287 287 288 289 289 286 286 293 298 300 302 304 305 307 307 306 305 306 307 309 311 312 312 313 315 316 318 320 321 321 320 319 318 316 314 313 311 309 308 307 307 307 307 306 307 307 307 306 306 306 305 302 299 294 288
246 247 249 250 252 252 252 253 253 254 254 255 256 256 256 256 258 261 265 265 260 253 249 254 262 271 279 284 288 288 287 286 286 286 287 285 285 288 294 297 299 301 304 306 307 307 306 307 307 308 309 310 310 311 312 314 316 318 320 321 321 320 320 319 317 315 313 312 310 310 310 311 311 311 311 311 310 310 310 310 309 308 306 303 298 292
246 247 249 251 252 252 252 251 251 252 252 253 253 252 251 251 253 257 262 265 264 262 264 269 274 279 282 284 284 283 282 282 282 283 283 284 286 289 294 297 299 301 303 304 304 304 305 307 309 310 310 310 310 311 312 314 315 317 318 319 319 319 319 319 317 316 315 314 313 313 314 314 314 314 314 314 313 313 313 312 312 311 310 308 303 298
250 251 253 255 257 257 257 256 254 253 253 253 252 251 249 248 250 253 258 263 268 271 274 277 279 281 281 281 278 275 275 277 280 281 283 285 288 291 294 296 297 299 301 301 299 298 300 303 306 309 311 311 311 311 311 313 314 315 316 317 317 318 319 318 317 316 316 317 317 317 317 317 317 317 317 317 316 316 315 315 314 313 312 310 307 303
257 259 261 263 265 265 264 262 258 255 253 252 251 250 249 248 249 252 257 262 266 270 273 274 276 277 278 278 275 273 273 275 278 281 284 286 288 290 292 294 295 297 299 300 298 296 295 297 301 306 308 309 310 310 311 312 313 314 315 315 315 316 318 319 318 317 317 318 318 318 319 319 319 319 319 319 319 318 317 317 316 314 312 309 307 304
260 263 266 268 269 269 268 265 260 256 252 250 249 248 247 247 249 254 259 264 267 268 268 269 270 273 274 274 273 272 273 275 278 282 285 286 286 287 290 292 293 296 298 299 299 298 296 297 300 303 306 308 309 309 310 311 312 314 314 314 314 315 317 318 318 317 318 318 318 318 319 319 320 320 320 320 320 319 319 318 317 315 310 306 304 302
259 262 265 266 268 268 268 266 262 258 254 251 248 247 247 248 252 258 264 269 270 270 268 267 268 271 272 272 271 271 272 275 279 283 285 285 286 287 289 290 292 294 296 297 298 299 298 299 300 302 304 306 307 309 310 311 312 313 313 313 313 314 315 317 317 317 317 317 316 317 318 319 319 318 319 320 320 319 319 318 318 316 312 306 301 297
256 259 262 263 265 266 266 265 263 261 257 254 250 248 249 251 256 263 269 273 273 272 270 270 271 273 274 272 271 271 273 277 281 284 285 286 287 287 287 288 290 292 294 295 296 297 297 299 300 302 303 304 305 307 310 312 312 312 312 313 314 315 316 317 317 316 316 316 315 316 317 318 318 318 319 320 320 319 319 319 320 320 318 312 303 295
253 256 259 261 262 263 263 263 263 262 260 257 254 252 253 256 262 269 274 276 275 274 272 273 275 277 276 274 272 272 274 278 282 284 286 287 288 288 287 288 290 292 292 293 294 295 297 297 299 301 302 302 302 304 308 311 312 312 312 313 313 314 315 317 318 317 315 315 315 316 317 318 318 318 319 321 322 322 322 323 324 325 324 319 310 299
252 255 258 260 261 261 261 262 262 263 263 261 259 257 257 261 267 273 276 277 276 274 274 276 279 279 278 275 273 273 275 278 281 283 285 286 287 287 287 288 290 292 292 292 293 294 295 295 296 298 300 301 302 303 305 308 310 311 311 313 313 314 314 317 318 317 316 316 317 318 318 319 320 320 322 323 324 325 325 328 329 330 329 325 316 303
251 254 257 259 260 261 262 263 265 266 266 265 262 261 261 265 270 275 277 276 275 274 275 279 281 280 278 275 273 273 275 277 280 282 284 284 285 286 286 288 290 292 294 294 293 293 293 293 293 295 297 299 301 303 305 307 308 309 311 313 314 314 315 317 318 318 318 318 319 319 320 320 321 322 323 324 325 325 326 328 331 333 334 331 323 310
248 252 257 260 263 264 266 268 269 270 269 266 264 263 264 268 272 275 275 274 273 274 277 280 281 280 277 274 272 272 273 276 278 280 281 282 283 284 286 288 291 294 296 296 295 293 292 291 292 294 295 296 298 301 304 305 306 308 310 311 311 312 315 317 318 319 320 320 319 319 320 321 322 322 323 324 324 325 325 327 330 333 336 334 329 322
247 252 257 262 266 267 269 270 270 269 267 264 263 264 267 271 273 273 273 272 272 274 278 281 281 279 276 273 271 271 272 274 276 277 278 279 281 284 287 290 293 295 295 295 294 293 292 291 292 293 294 295 297 299 301 302 305 307 309 307 307 309 313 316 318 319 320 320 320 320 320 321 321 322 323 324 324 325 326 327 328 331 334 334 331 327
247 253 259 263 265 266 267 267 266 264 263 263 264 267 270 272 273 272 270 270 272 275 279 281 280 277 275 273 272 272 272 273 274 276 277 279 281 285 289 292 295 296 296 294 293 292 292 291 292 292 294 295 297 298 300 301 305 307 306 305 306 309 312 315 318 320 319 319 320 320 320 321 321 322 323 323 324 325 326 326 327 327 328 330 330 328
249 254 258 260 261 261 261 260 260 261 263 266 268 271 272 273 271 270 268 269 272 276 279 279 278 275 273 272 272 273 273 274 275 276 278 280 283 287 291 294 296 296 296 294 292 293 294 294 293 293 295 296 297 297 298 300 304 306 305 306 307 307 308 312 317 320 319 319 319 320 321 321 322 322 322 322 322 323 324 324 324 324 325 327 328 328
250 253 254 255 256 256 257 259 261 264 266 268 270 270 271 270 268 267 267 269 272 275 276 276 274 272 270 270 271 273 275 277 278 278 279 282 285 288 291 294 296 296 296 293 292 293 295 295 295 295 296 297 296 296 297 299 301 304 307 309 308 305 304 308 313 316 317 318 319 320 320 321 321 321 320 319 319 320 321 321 322 322 323 325 327 327
250 251 252 253 254 256 258 261 263 265 266 266 266 267 267 266 265 265 267 270 273 274 274 272 270 267 266 267 268 271 273 276 278 279 280 282 285 288 291 293 295 295 295 294 293 293 294 294 296 298 300 299 297 295 295 297 300 303 307 311 311 309 309 310 312 314 314 316 317 318 319 320 320 319 317 316 316 316 316 317 317 318 320 322 325 327
249 251 252 254 256 258 260 262 264 264 264 263 263 264 265 265 266 268 270 271 273 274 273 271 268 264 263 265 267 269 271 273 275 278 280 282 285 288 290 292 293 294 294 294 294 294 294 294 296 298 300 299 298 297 298 299 301 304 309 311 312 312 313 313 313 313 314 314 314 316 318 319 318 316 314 313 312 312 312 312 313 314 316 319 322 325
250 252 254 256 258 260 261 263 263 262 262 262 263 265 267 268 270 271 272 273 273 272 271 270 267 264 263 264 265 266 268 270 273 276 279 282 286 288 290 291 292 292 292 292 293 293 294 296 297 298 297 296 296 298 301 304 305 306 309 312 313 312 311 311 312 313 314 312 312 313 316 316 315 314 313 311 310 309 309 310 310 312 314 316 319 322
251 253 254 256 258 260 261 262 262 262 262 264 266 268 270 272 272 273 273 273 272 271 270 268 266 264 264 264 264 265 266 267 270 273 277 281 284 287 289 290 290 291 291 292 292 293 294 296 297 297 296 294 294 297 302 306 308 309 310 311 311 310 308 309 311 313 313 312 312 312 313 313 312 312 311 311 309 309 308 309 310 311 313 315 317 319
250 252 254 255 257 258 260 261 263 264 266 268 269 271 272 274 274 273 272 272 271 270 269 267 266 265 264 264 264 265 265 266 268 271 275 279 282 285 287 288 289 289 290 291 292 293 295 296 297 297 295 294 293 296 300 305 308 310 311 310 309 307 306 307 310 313 313 313 313 313 313 312 311 311 311 310 309 308 309 309 310 311 313 314 316 318
248 251 253 255 257 259 261 263 265 266 268 270 272 273 275 275 275 274 273 272 271 270 269 268 267 266 265 265 264 264 264 265 267 270 273 277 281 284 286 287 287 287 288 289 291 293 294 296 296 296 296 295 293 294 297 302 306 308 308 308 307 306 306 307 310 312 313 313 314 314 314 313 313 314 314 311 310 309 310 310 311 312 313 315 316 318
249 252 254 256 258 261 263 266 268 269 271 273 274 275 276 276 276 275 274 273 272 271 270 270 269 267 265 265 264 264 263 264 266 269 272 277 280 283 284 285 285 285 285 287 288 290 292 293 294 295 296 296 294 292 292 296 300 303 303 305 307 308 307 308 310 313 314 315 315 315 315 315 316 317 316 314 311 310 310 311 311 312 313 315 317 318